Theta_e
333 333 330 330 330 330 328 329 327 328 327 326 327 328 328 327 326 326 326 325 324 325 325 324 324 323 325 326 327 328 328 327 325 326 328 328 330 328 328 328 328 322 323
333 331 330 329 329 330 329 328 328 327 326 327 328 329 328 327 327 327 327 322 324 325 326 324 323 325 328 329 330 329 328 328 325 327 327 327 327 326 324 323 323 323 324
332 329 329 329 330 330 328 328 325 326 326 326 328 328 327 327 328 329 330 329 326 324 325 325 325 325 327 329 329 329 328 327 326 327 324 324 323 324 323 323 323 323 322
329 329 328 328 330 329 328 327 327 326 327 327 327 327 328 328 329 330 330 330 329 326 325 326 326 326 327 327 328 328 327 326 326 324 323 323 323 324 324 323 323 322 321
331 329 329 330 329 328 327 328 328 328 327 327 327 327 327 328 327 330 330 330 329 326 327 328 328 328 329 327 325 327 327 325 324 323 323 323 323 323 322 323 323 321 321
331 329 329 329 328 327 327 327 327 327 326 327 327 327 328 325 324 329 330 330 329 327 327 327 328 328 328 327 326 327 326 324 323 323 323 323 323 322 322 323 322 321 320
330 330 329 329 329 327 328 327 327 327 327 326 327 328 328 327 323 329 330 330 329 327 327 328 329 329 326 326 326 325 324 324 323 323 323 323 322 323 324 323 322 320 318
330 330 330 331 329 328 328 327 327 326 327 327 327 327 328 325 325 328 330 330 329 329 328 329 329 328 327 326 324 324 324 323 322 322 322 323 323 323 324 323 320 316 314
330 331 330 330 329 329 328 328 329 328 328 328 327 327 327 323 326 329 329 329 329 329 328 329 328 327 327 325 325 323 324 324 324 324 323 323 323 324 323 316 314 313 312
331 331 330 330 330 330 329 330 329 329 329 328 329 329 326 324 327 329 330 329 329 329 329 328 328 328 327 326 324 325 324 324 324 324 324 323 323 322 320 316 313 311 313
332 331 331 330 329 329 330 329 330 331 329 329 329 329 325 326 327 329 330 329 329 328 327 327 328 328 327 327 325 325 325 324 324 324 323 321 320 316 316 321 321 318 312
331 330 331 330 331 332 328 329 332 330 329 329 328 328 326 327 328 329 329 329 328 328 327 327 327 327 327 327 326 325 325 324 324 323 322 321 320 315 314 323 324 323 323
331 330 331 331 331 328 325 331 332 329 329 329 328 327 327 328 329 329 329 329 329 328 326 325 325 326 326 327 326 326 324 324 323 323 324 323 322 319 315 323 324 325 326
331 331 332 331 332 332 321 328 328 330 328 329 329 326 328 328 329 328 328 327 327 326 326 324 325 325 326 326 326 325 325 324 324 324 324 324 323 316 318 322 323 324 325
331 332 331 330 332 332 324 328 328 330 330 330 328 328 326 327 328 328 327 327 326 326 326 326 326 326 325 323 324 325 323 322 323 323 323 323 321 320 319 320 323 326 326
330 332 332 331 333 332 329 328 328 327 327 330 329 330 329 326 327 328 328 327 325 326 326 327 327 327 327 325 324 323 323 324 325 324 323 321 316 312 313 317 322 323 324
328 331 332 332 332 332 330 330 328 326 325 325 329 331 330 328 326 327 327 327 325 324 324 323 322 320 319 322 325 326 327 327 328 326 326 325 325 325 325 325 326 326 325
327 328 329 330 331 332 332 329 329 327 325 324 325 328 329 330 326 326 327 327 328 326 323 324 326 326 321 318 325 325 325 326 327 328 328 329 328 327 327 327 326 325 322
327 327 327 327 330 329 332 331 330 330 328 327 324 324 325 327 328 325 326 326 327 327 326 323 324 327 329 328 324 322 323 325 324 327 325 327 325 325 324 324 322 321 322
325 326 326 326 327 329 327 331 330 331 331 329 327 323 323 324 324 323 323 325 326 326 326 327 328 329 329 328 328 328 326 326 326 324 325 325 325 326 326 325 323 322 322
326 326 325 326 327 326 328 326 330 331 331 331 330 327 321 318 322 323 319 319 324 325 325 325 328 329 330 329 328 326 327 327 326 325 325 324 323 323 324 325 325 324 323
326 326 326 325 325 327 325 325 324 326 328 330 330 329 328 326 321 316 318 319 316 315 316 318 321 324 327 326 324 325 325 323 323 324 324 324 323 323 323 322 323 325 324
327 326 326 325 325 325 327 324 324 323 324 325 326 329 329 328 326 324 323 319 314 313 315 315 314 315 316 318 321 322 323 323 322 321 321 321 320 319 319 320 322 323 324
329 327 327 326 327 326 325 326 325 324 323 324 325 325 325 325 324 324 324 324 323 323 321 315 312 314 317 320 321 321 320 321 322 323 323 323 323 322 322 321 320 320 320
332 332 332 328 328 328 327 325 326 325 324 323 323 324 324 324 325 325 324 324 324 323 323 320 317 317 318 316 314 317 322 323 323 323 321 321 321 322 322 322 322 321 321
332 332 332 333 331 329 329 329 326 325 326 324 323 323 323 324 323 323 324 324 324 324 323 323 323 320 320 322 323 324 321 318 321 322 323 322 321 320 319 319 320 321 321
Wind_Speed
19 14 12 10 5 4 1 3 9 10 7 6 6 6 6 5 2 2 2 6 6 5 3 7 8 6 6 8 12 18 21 22 23 19 19 14 16 30 41 45 41 43 40
19 13 12 8 7 7 4 6 12 11 12 6 3 2 5 8 6 4 3 9 9 5 3 7 4 6 7 6 15 20 20 21 22 30 26 28 34 37 46 44 46 42 37
17 13 10 8 8 6 8 7 8 14 11 6 2 1 3 4 3 5 7 3 6 3 6 4 6 7 8 10 17 19 24 24 27 30 36 38 40 41 43 41 41 36 32
15 11 8 7 6 7 10 11 10 11 9 4 3 2 1 4 4 5 6 3 3 7 2 3 9 9 9 10 11 15 26 31 33 34 40 43 45 46 46 40 40 31 28
16 9 5 6 6 10 10 14 11 9 8 5 3 2 2 5 3 7 7 7 7 9 8 10 11 12 9 13 9 16 29 36 38 45 44 45 42 43 39 36 38 30 26
16 8 5 4 7 9 13 11 12 9 8 5 7 3 2 2 5 6 7 9 10 10 12 12 13 11 12 9 10 20 29 38 44 45 45 45 45 37 36 33 31 31 27
13 8 8 10 10 12 12 12 11 9 8 8 8 6 2 3 5 5 6 9 11 13 11 10 15 14 14 12 15 26 37 32 38 46 44 43 39 34 35 33 35 32 31
13 11 12 12 10 14 12 11 11 12 12 10 9 8 4 2 2 4 6 9 14 12 10 12 16 18 16 20 28 32 35 42 38 41 32 30 36 29 27 31 32 26 24
15 16 16 13 14 14 11 8 8 10 11 12 12 9 4 5 5 7 8 12 15 12 12 14 16 21 18 24 33 35 35 33 28 24 28 29 28 27 27 31 26 24 25
20 18 17 12 14 12 10 9 6 9 9 11 12 8 4 6 8 9 9 12 15 15 13 14 17 19 19 24 29 28 30 30 29 27 26 26 26 27 27 20 20 20 21
20 15 17 15 13 13 11 8 12 10 9 12 11 8 6 7 10 12 12 11 16 15 15 18 17 17 18 20 25 24 25 31 30 30 28 29 29 25 25 18 18 13 18
22 21 21 18 17 12 9 12 10 9 10 9 9 10 12 12 11 14 13 13 14 13 14 18 18 19 18 21 23 22 23 31 33 29 28 28 26 24 26 18 16 17 12
23 20 22 17 13 10 14 12 10 9 11 12 11 12 13 16 15 18 17 13 14 14 20 21 21 19 19 20 20 28 25 32 36 28 23 26 26 20 23 19 17 18 17
23 23 23 17 15 10 11 13 12 11 12 11 12 13 15 18 19 20 17 15 15 21 23 23 22 21 20 20 25 28 29 29 30 26 24 21 21 24 25 21 18 16 16
27 24 23 19 17 13 12 14 10 7 8 11 9 11 14 18 22 21 19 19 21 24 26 24 25 22 23 24 25 26 26 24 22 20 19 19 21 23 26 25 21 18 19
28 27 25 22 20 17 13 15 14 11 8 8 7 8 10 11 21 23 21 20 21 24 24 23 22 21 23 24 27 27 25 23 20 18 19 20 21 23 26 26 24 23 22
31 29 27 25 23 23 19 18 15 16 9 9 11 11 8 8 17 24 23 22 21 21 23 22 20 21 23 29 28 27 24 21 19 21 21 20 22 22 22 24 24 25 25
30 31 29 26 24 25 21 20 19 17 16 14 11 13 11 11 11 24 25 24 23 22 22 23 21 20 21 25 26 23 18 19 22 23 27 25 27 26 25 26 28 28 25
29 31 29 26 26 25 25 23 22 21 22 20 20 17 16 16 14 17 22 25 27 27 26 25 23 23 24 23 22 23 22 23 25 28 23 26 28 28 28 25 25 25 26
33 31 29 26 28 25 24 26 27 24 23 22 24 24 24 24 24 25 26 26 27 29 30 28 27 25 25 25 26 27 26 27 28 26 32 30 26 28 29 28 28 30 32
34 33 31 29 28 30 29 27 27 29 27 27 23 21 27 31 30 29 29 31 32 32 32 32 30 30 30 30 30 28 31 32 31 32 32 30 29 35 34 32 31 33 33
35 34 32 30 32 28 30 29 28 29 29 28 28 26 23 23 27 32 32 32 32 33 32 33 34 36 36 35 31 32 34 31 32 33 33 32 31 32 33 35 34 31 32
37 36 33 30 29 33 29 32 32 30 31 31 29 30 29 30 28 28 27 27 32 34 34 36 35 33 31 34 39 37 33 34 36 33 34 35 35 35 34 34 33 36 34
19 33 35 32 27 28 36 29 36 34 32 32 32 33 32 32 32 31 30 28 26 26 28 34 38 41 38 36 33 33 35 37 35 33 33 34 35 35 34 35 35 36 35
10 14 9 35 36 32 29 38 31 36 37 36 36 37 37 35 34 35 33 32 32 30 28 27 30 31 31 34 40 41 40 36 33 33 35 37 37 35 35 35 35 36 37
9 6 7 4 25 39 36 34 40 37 37 40 38 39 40 40 41 39 38 37 37 36 35 33 30 30 29 28 28 27 31 37 39 38 36 36 37 36 35 35 34 36 36
Wind_Direction
162 164 154 170 192 193 233 168 165 152 148 147 88 39 10 8 357 280 214 200 225 244 203 197 188 204 207 192 196 198 200 199 171 153 162 171 163 166 162 169 170 153 148
163 168 175 184 203 208 193 182 179 176 160 137 91 279 329 347 346 335 254 228 218 223 186 190 216 193 177 167 184 189 185 184 179 156 157 160 163 163 149 141 141 147 153
168 165 171 195 225 217 165 175 177 151 145 145 149 337 339 346 350 32 22 235 198 226 192 171 180 187 176 164 186 183 160 165 155 153 143 143 150 150 144 145 144 148 147
173 173 182 215 216 199 162 170 143 149 148 156 149 272 333 1 47 4 22 43 139 184 173 189 187 184 177 185 179 164 159 157 152 149 140 143 144 149 148 147 150 149 150
181 169 198 191 167 150 152 168 167 169 156 159 161 108 310 350 20 34 44 65 121 139 124 124 144 129 145 140 144 164 162 155 156 150 136 148 147 145 150 156 147 142 148
177 177 183 158 151 159 160 163 164 168 164 172 159 209 276 19 38 49 63 81 107 127 135 123 126 128 139 151 154 169 163 160 153 150 147 146 148 153 155 158 157 152 147
172 173 154 162 158 158 160 165 169 166 168 180 191 214 260 320 21 72 67 96 108 130 131 132 132 128 139 134 140 165 153 157 151 151 148 156 157 160 162 161 160 161 155
172 161 168 162 149 157 163 169 179 183 179 180 210 231 246 250 77 88 98 113 124 126 130 142 138 131 138 133 141 146 150 152 153 152 146 147 158 157 163 163 155 152 151
175 163 163 164 151 164 171 180 185 192 194 192 217 230 219 182 133 113 103 125 131 124 128 140 141 137 136 143 146 149 154 152 155 144 157 146 154 158 157 152 153 156 156
178 167 165 155 160 162 164 177 168 160 172 185 201 201 192 171 140 136 124 148 141 134 136 139 141 140 142 155 152 148 153 157 154 153 155 157 154 153 155 153 158 166 161
180 175 168 155 167 176 183 178 155 142 142 162 176 172 162 152 148 148 147 156 151 139 135 142 143 143 147 155 167 158 151 154 151 153 156 154 156 158 159 160 166 179 182
177 174 171 170 182 190 165 152 152 147 154 146 161 156 160 155 156 151 153 160 159 150 143 144 139 143 147 153 168 177 159 160 158 152 153 163 169 173 174 167 174 188 205
177 184 179 179 183 174 167 165 161 159 166 144 142 153 152 154 153 151 149 150 164 155 137 133 131 136 149 157 158 163 162 165 165 166 166 174 182 179 177 180 183 195 226
182 186 178 182 184 166 161 167 166 160 164 164 154 148 151 158 157 152 151 145 143 151 144 140 132 127 136 149 157 161 169 167 175 177 176 178 181 185 190 199 207 215 223
189 188 183 186 189 173 157 163 170 172 176 173 153 161 166 167 168 163 158 151 151 151 150 151 147 146 144 149 157 167 167 174 182 187 190 190 192 195 198 206 215 227 228
192 188 186 187 192 189 177 184 198 204 188 189 168 131 131 155 173 170 166 158 160 160 161 161 163 166 171 170 170 170 174 179 190 196 196 196 199 201 204 212 223 233 245
197 194 191 189 192 193 198 205 190 188 172 161 190 185 159 135 169 174 170 170 170 170 173 170 170 174 176 175 175 179 184 195 205 210 215 210 208 210 216 223 234 241 246
206 201 201 202 204 205 207 206 211 204 199 194 176 163 179 168 156 177 177 176 181 190 187 182 178 178 186 187 190 194 201 206 210 220 223 224 222 223 224 233 243 242 244
209 207 208 207 206 208 211 215 215 218 217 213 209 200 189 187 186 186 199 201 196 194 195 194 197 197 207 212 210 213 213 216 221 219 219 223 225 228 233 244 247 252 255
208 214 211 210 211 214 213 213 219 222 221 220 220 216 206 200 200 199 203 206 208 207 203 201 198 202 213 214 221 229 228 229 230 227 223 228 227 235 244 249 246 244 247
211 211 215 215 216 217 217 214 216 225 227 227 228 225 226 225 220 217 214 213 215 216 216 216 212 210 214 221 229 228 230 233 235 236 240 241 239 240 241 246 250 250 251
217 217 217 218 217 220 221 221 220 222 231 232 234 234 232 229 232 233 231 230 229 229 228 227 226 224 221 221 222 228 236 236 236 238 241 244 247 249 245 245 247 249 249
216 222 219 221 221 218 222 224 223 224 227 233 237 239 231 232 236 237 240 242 241 240 238 237 237 234 229 230 230 229 232 238 242 241 242 243 246 248 250 248 245 245 247
198 221 225 224 222 223 221 226 228 226 226 227 231 239 240 241 241 243 245 244 243 243 245 243 241 241 240 239 237 236 237 239 242 245 249 250 247 246 248 249 248 249 250
208 203 214 233 229 231 229 225 231 233 231 230 229 235 240 243 244 245 247 249 250 249 248 245 240 237 238 241 243 242 240 241 244 246 248 249 250 249 250 250 248 248 248
267 250 240 293 240 235 237 239 232 232 237 235 234 233 237 242 245 247 249 250 251 253 255 254 253 248 245 246 249 248 248 245 246 248 248 249 250 249 248 249 249 248 248